sat.trackr.live / text

‹ back to catalog

STARLINK-36664

NORAD 68965 · 2026-099Q

PAYLOAD ACTIVE UNKNOWN

§ Identity

Operator
Country
US
Launch date
2026-05-01
Launch site
AFETR
Launch vehicle
Mass (kg)
RCS (m²)

Purposes: comms

External: N2YO · Heavens-Above · Gunter

§ Orbital elements

Epoch: 2026-05-25T04:00:03.998880Z

Period
91.77 min
Inclination
53.1590°
Eccentricity
0.0000755
Mean motion
15.69084190 rev/d
Perigee alt
361.0 km
Apogee alt
362.0 km
Semi-major
6,739.7 km
B*
-1.8239e-2
RAAN
269.9373°
Arg perigee
72.3599°
Mean anomaly
286.3486°
Rev number
501

§ Raw data

STARLINK-366641 68965U 26099Q   26145.16671295 -.01909639  00000+0 -18239-1 0  99972 68965  53.1590 269.9373 0000755  72.3599 286.3486 15.69084190  5016

JSON: /api/v1/satellites/68965 · /tle

For live sub-satellite position, see the globe view (requires WebGL).

§ Visibility from observer

Set your observer location to see the next 7 days of passes ≥ 10°. The values pass through the URL so the page stays shareable.

No JS? Fill the form by hand. The geolocation button needs JavaScript.